Lakeville, MN

8:20 PM CST on January 20, 2017 (GMT -0600)
Airlake

Weather History for KLVN - August, 2012

Change the Weather History Date:

Wednesday, August 8, 2012

  Actual Average Record
Temperature  
Mean Temperature 66 °F -  
Max Temperature 73 °F 80 °F 93 °F (1949)
Min Temperature 60 °F 60 °F 45 °F (1959)
Cooling Degree Days 2    
Growing Degree Days 16 (Base 50)    
Moisture  
Dew Point 62 °F    
Average Humidity 87    
Maximum Humidity 100    
Minimum Humidity 73    
Precipitation  
Precipitation 0.29 in - - ()
Sea Level Pressure  
Sea Level Pressure 29.98 in    
Wind  
Wind Speed 3 mph (ENE)    
Max Wind Speed 14 mph    
Max Gust Speed 20 mph    
Visibility 10 miles    
Events Rain , Thunderstorm    
Averages and records for this station are not official NWS values.
T = Trace of Precipitation, MM = Missing Value Source: NWS Daily Summary

Daily Weather History Graph

Daily Weather History Graph

Search for Another Location

Airport or City:

Trip Planner

Search our weather history database for the weather conditions in past years. The results will help you decide how hot, cold, wet, or windy it might be!

Date:

Astronomy

Aug. 08, 2012 Rise Set
Actual Time 6:07 AM CDT 8:28 PM CDT
Civil Twilight 5:35 AM CDT 9:00 PM CDT
Nautical Twilight 4:54 AM CDT 9:40 PM CDT
Astronomical Twilight 4:09 AM CDT 10:25 PM CDT
Moon 11:22 PM CDT (8/8) 1:14 PM CDT (8/8)
Length of Visible Light 15h 25m
Length of Day
14h 20m
Waning Gibbous, 60% of the Moon is Illuminated
Aug 8
Waning Gibbous
Aug 9
Last Quarter
Aug 17
New
Aug 24
First Quarter
Aug 31
Full

Hourly Weather History & Observations

Time (CDT) Temp. Dew Point Humidity Pressure Visibility Wind Dir Wind Speed Gust Speed Precip Events Conditions
12:13 AM 60.8 °F 59.0 °F 94% 30.01 in 10.0 mi Calm Calm - N/A   Clear
12:33 AM 60.8 °F 59.0 °F 94% 30.01 in 10.0 mi Calm Calm - N/A   Clear
12:54 AM 60.8 °F 59.0 °F 94% 30.02 in 10.0 mi Calm Calm - N/A   Clear
1:13 AM 60.8 °F 59.0 °F 94% 30.02 in 10.0 mi Calm Calm - N/A   Clear
1:33 AM 60.8 °F 59.0 °F 94% 30.02 in 10.0 mi Calm Calm - N/A   Clear
1:53 AM 62.6 °F 60.8 °F 94% 30.02 in 10.0 mi Calm Calm - N/A   Clear
2:13 AM 62.6 °F 60.8 °F 94% 30.02 in 10.0 mi Calm Calm - N/A   Clear
2:34 AM 62.6 °F 60.8 °F 94% 30.01 in 10.0 mi Calm Calm - N/A   Clear
2:53 AM 62.6 °F 60.8 °F 94% 30.00 in 10.0 mi Calm Calm - N/A   Clear
3:13 AM 62.6 °F 60.8 °F 94% 30.00 in 10.0 mi Calm Calm - N/A   Scattered Clouds
3:33 AM 62.6 °F 60.8 °F 94% 29.99 in 10.0 mi Calm Calm - N/A   Scattered Clouds
3:53 AM 62.6 °F 60.8 °F 94% 29.99 in 10.0 mi Calm Calm - N/A   Scattered Clouds
4:13 AM 62.6 °F 60.8 °F 94% 29.97 in 10.0 mi ENE 3.5 mph - N/A   Scattered Clouds
4:33 AM 62.6 °F 60.8 °F 94% 29.96 in 10.0 mi Calm Calm - N/A   Scattered Clouds
4:53 AM 60.8 °F 59.0 °F 94% 29.95 in 10.0 mi Calm Calm - N/A   Clear
5:13 AM 62.6 °F 60.8 °F 94% 29.95 in 10.0 mi Calm Calm - N/A   Clear
5:33 AM 62.6 °F 60.8 °F 94% 29.98 in 10.0 mi Calm Calm - N/A   Clear
5:54 AM 62.6 °F 60.8 °F 94% 29.98 in 10.0 mi ESE 3.5 mph - N/A   Clear
6:13 AM 62.6 °F 60.8 °F 94% 29.98 in 10.0 mi Calm Calm - N/A   Clear
6:33 AM 62.6 °F 60.8 °F 94% 29.98 in 3.0 mi Calm Calm - N/A   Clear
6:54 AM 62.6 °F 60.8 °F 94% 29.99 in 4.0 mi Calm Calm - N/A   Clear
7:13 AM 62.6 °F 60.8 °F 94% 29.99 in 7.0 mi Calm Calm - N/A   Clear
7:33 AM 62.6 °F 60.8 °F 94% 30.00 in 7.0 mi Calm Calm - N/A   Clear
7:54 AM 64.4 °F 60.8 °F 88% 30.00 in 10.0 mi Calm Calm - N/A   Scattered Clouds
8:13 AM 66.2 °F 60.8 °F 83% 30.01 in 10.0 mi Calm Calm - N/A   Mostly Cloudy
8:33 AM 66.2 °F 60.8 °F 83% 29.98 in 10.0 mi East 6.9 mph - N/A   Scattered Clouds
8:54 AM 64.4 °F 60.8 °F 88% 29.98 in 7.0 mi ESE 4.6 mph - N/A   Scattered Clouds
9:13 AM 66.2 °F 60.8 °F 83% 29.99 in 10.0 mi East 4.6 mph - N/A   Mostly Cloudy
9:33 AM 66.2 °F 60.8 °F 83% 30.00 in 10.0 mi ESE 3.5 mph - N/A   Mostly Cloudy
9:54 AM 66.2 °F 62.6 °F 88% 29.99 in 10.0 mi East 3.5 mph - N/A Rain , Thunderstorm Light Thunderstorms and Rain
10:13 AM 68.0 °F 62.6 °F 83% 30.01 in 10.0 mi ESE 3.5 mph - N/A Thunderstorm Mostly Cloudy
10:33 AM 69.8 °F 62.6 °F 78% 30.00 in 10.0 mi ESE 5.8 mph - N/A   Overcast
10:54 AM 69.8 °F 62.6 °F 78% 30.00 in 10.0 mi East 8.1 mph - N/A   Mostly Cloudy
11:13 AM 69.8 °F 62.6 °F 78% 29.98 in 10.0 mi East 9.2 mph - N/A   Mostly Cloudy
11:33 AM 71.6 °F 62.6 °F 73% 29.98 in 10.0 mi ESE 13.8 mph - N/A Thunderstorm Mostly Cloudy
11:54 AM 68.0 °F 62.6 °F 83% 29.99 in 2.5 mi ENE 4.6 mph - 0.05 in Rain , Thunderstorm Heavy Thunderstorms and Rain
12:13 PM 64.4 °F 62.6 °F 94% 29.97 in 2.5 mi East 10.4 mph - 0.18 in Rain , Thunderstorm Heavy Thunderstorms and Rain
12:33 PM 64.4 °F 62.6 °F 94% 29.96 in 10.0 mi ESE 8.1 mph - 0.24 in Rain , Thunderstorm Light Thunderstorms and Rain
12:54 PM 64.4 °F 62.6 °F 94% 29.95 in 10.0 mi ENE 3.5 mph - 0.24 in   Clear
1:13 PM 66.2 °F 62.6 °F 88% 29.96 in 10.0 mi East 4.6 mph - N/A   Clear
1:33 PM 69.8 °F 64.4 °F 83% 29.95 in 10.0 mi ENE 6.9 mph - N/A   Clear
1:54 PM 69.8 °F 64.4 °F 83% 29.95 in 10.0 mi East 8.1 mph - N/A   Scattered Clouds
2:13 PM 69.8 °F 64.4 °F 83% 29.95 in 10.0 mi East 8.1 mph - N/A   Scattered Clouds
2:33 PM 69.8 °F 64.4 °F 83% 29.95 in 10.0 mi East 8.1 mph - N/A   Clear
2:54 PM 69.8 °F 64.4 °F 83% 29.95 in 10.0 mi ENE 8.1 mph - N/A   Scattered Clouds
3:13 PM 73.4 °F 66.2 °F 78% 29.95 in 10.0 mi ENE 10.4 mph - N/A   Scattered Clouds
3:33 PM 73.4 °F 66.2 °F 78% 29.94 in 10.0 mi ENE 10.4 mph - N/A   Scattered Clouds
3:54 PM 71.6 °F 64.4 °F 78% 29.95 in 10.0 mi NE 10.4 mph 17.3 mph N/A   Mostly Cloudy
4:13 PM 71.6 °F 64.4 °F 78% 29.95 in 10.0 mi NE 11.5 mph - N/A   Mostly Cloudy
4:33 PM 71.6 °F 64.4 °F 78% 29.94 in 10.0 mi ENE 10.4 mph - N/A   Scattered Clouds
4:54 PM 73.4 °F 64.4 °F 73% 29.95 in 10.0 mi ENE 11.5 mph 17.3 mph N/A   Mostly Cloudy
5:13 PM 71.6 °F 62.6 °F 73% 29.95 in 10.0 mi ENE 9.2 mph - N/A   Mostly Cloudy
5:33 PM 71.6 °F 62.6 °F 73% 29.95 in 10.0 mi ENE 10.4 mph - N/A   Mostly Cloudy
5:52 PM 71.6 °F 62.6 °F 73% 29.95 in 10.0 mi NE 10.4 mph - N/A   Scattered Clouds
6:13 PM 71.6 °F 62.6 °F 73% 29.95 in 10.0 mi NE 9.2 mph - N/A   Mostly Cloudy
6:33 PM 71.6 °F 64.4 °F 78% 29.96 in 10.0 mi NE 11.5 mph - N/A   Mostly Cloudy
6:53 PM 71.6 °F 64.4 °F 78% 29.95 in 10.0 mi NE 10.4 mph 17.3 mph N/A   Mostly Cloudy
7:13 PM 71.6 °F 64.4 °F 78% 29.96 in 10.0 mi NNE 13.8 mph - N/A   Mostly Cloudy
7:33 PM 69.8 °F 64.4 °F 83% 29.96 in 10.0 mi NE 13.8 mph - N/A   Overcast
7:53 PM 69.8 °F 62.6 °F 78% 29.96 in 10.0 mi NE 12.7 mph 16.1 mph N/A   Overcast
8:13 PM 66.2 °F 62.6 °F 88% 29.97 in 10.0 mi NNE 13.8 mph 19.6 mph N/A   Overcast
8:33 PM 66.2 °F 62.6 °F 88% 29.98 in 10.0 mi NE 10.4 mph 17.3 mph N/A   Mostly Cloudy
8:53 PM 66.2 °F 62.6 °F 88% 29.99 in 10.0 mi NE 6.9 mph - N/A   Mostly Cloudy
9:13 PM 66.2 °F 62.6 °F 88% 29.99 in 10.0 mi NE 6.9 mph - N/A   Overcast
9:53 PM 64.4 °F 62.6 °F 94% 29.99 in 10.0 mi NE 5.8 mph - N/A   Mostly Cloudy
10:13 PM 62.6 °F 62.6 °F 100% 29.99 in 10.0 mi NE 3.5 mph - N/A   Scattered Clouds
10:33 PM 62.6 °F 62.6 °F 100% 30.00 in 10.0 mi NNE 5.8 mph - N/A   Clear
10:54 PM 62.6 °F 60.8 °F 94% 30.00 in 10.0 mi North 5.8 mph - N/A   Scattered Clouds
11:13 PM 62.6 °F 60.8 °F 94% 30.00 in 10.0 mi North 5.8 mph - N/A   Mostly Cloudy
11:33 PM 62.6 °F 60.8 °F 94% 29.99 in 10.0 mi North 5.8 mph - N/A   Overcast
11:53 PM 62.6 °F 60.8 °F 94% 29.99 in 10.0 mi North 4.6 mph - N/A   Mostly Cloudy